Silver Bay, MN

10:04 AM CDT on April 28, 2017 (GMT -0500)
Silver Bay Municipal

Weather History for KBFW - September, 2013

Change the Weather History Date:

Thursday, September 26, 2013

  Actual Average Record
Temperature  
Mean Temperature 54 °F -  
Max Temperature 59 °F 57 °F 78 °F (2008)
Min Temperature 48 °F 35 °F 24 °F (2012)
Degree Days  
Heating Degree Days 10    
Growing Degree Days 4 (Base 50)    
Moisture  
Dew Point 48 °F    
Average Humidity 83    
Maximum Humidity 94    
Minimum Humidity 72    
Precipitation  
Precipitation 0.00 in - - ()
Sea Level Pressure  
Sea Level Pressure 29.99 in    
Wind  
Wind Speed 4 mph (NE)    
Max Wind Speed 14 mph    
Max Gust Speed 17 mph    
Visibility 5 miles    
Events Fog    
Averages and records for this station are not official NWS values.
T = Trace of Precipitation, MM = Missing Value Source: NWS Daily Summary

Daily Weather History Graph

Daily Weather History Graph

Search for Another Location

Airport or City:

Trip Planner

Search our weather history database for the weather conditions in past years. The results will help you decide how hot, cold, wet, or windy it might be!

Date:

Astronomy

Sep. 26, 2013 Rise Set
Actual Time 6:58 AM CDT 6:54 PM CDT
Civil Twilight 6:27 AM CDT 7:25 PM CDT
Nautical Twilight 5:51 AM CDT 8:00 PM CDT
Astronomical Twilight 5:15 AM CDT 8:37 PM CDT
Moon 11:33 PM CDT (9/26) 2:10 PM CDT (9/26)
Length of Visible Light 12h 57m
Length of Day
11h 56m
Waning Gibbous, 54% of the Moon is Illuminated
Sep 26
Waning Gibbous
Sep 26
Last Quarter
Oct 4
New
Oct 11
First Quarter
Oct 18
Full

Hourly Weather History & Observations

Time (CDT) Temp. Dew Point Humidity Pressure Visibility Wind Dir Wind Speed Gust Speed Precip Events Conditions
12:13 AM 51.8 °F 48.2 °F 88% 29.99 in 0.5 mi Calm Calm - N/A Fog Fog
12:33 AM 51.8 °F 48.2 °F 88% 29.99 in 0.5 mi NE 5.8 mph - N/A Fog Fog
12:53 AM 51.8 °F 48.2 °F 88% 29.99 in 0.5 mi NE 4.6 mph - N/A Fog Fog
1:13 AM 51.8 °F 48.2 °F 88% 30.00 in 0.8 mi Calm Calm - N/A   Overcast
1:33 AM 51.8 °F 48.2 °F 88% 30.00 in 0.8 mi East 4.6 mph - N/A   Overcast
1:53 AM 51.8 °F 48.2 °F 88% 29.99 in 0.8 mi NE 3.5 mph - N/A   Overcast
2:13 AM 51.8 °F 48.2 °F 88% 29.99 in 0.5 mi Calm Calm - N/A Fog Fog
2:33 AM 51.8 °F 48.2 °F 88% 29.99 in 0.2 mi Calm Calm - N/A Fog Fog
2:53 AM 51.8 °F 48.2 °F 88% 30.00 in 0.5 mi Calm Calm - N/A Fog Fog
3:13 AM 51.8 °F 48.2 °F 88% 29.99 in 0.5 mi Calm Calm - N/A Fog Fog
3:33 AM 51.8 °F 48.2 °F 88% 30.00 in 0.8 mi Calm Calm - N/A   Overcast
3:53 AM 51.8 °F 48.2 °F 88% 29.99 in 0.5 mi NE 3.5 mph - N/A Fog Fog
4:13 AM 51.8 °F 48.2 °F 88% 29.99 in 0.2 mi NE 5.8 mph - N/A Fog Fog
4:33 AM 51.8 °F 48.2 °F 88% 29.99 in 0.5 mi NE 3.5 mph - N/A Fog Fog
4:53 AM 51.8 °F 48.2 °F 88% 29.99 in 0.5 mi NE 4.6 mph - N/A Fog Fog
5:13 AM 50.0 °F 48.2 °F 94% 29.99 in 0.8 mi ENE 3.5 mph - N/A   Overcast
5:33 AM 50.0 °F 48.2 °F 94% 29.99 in 2.0 mi Calm Calm - N/A   Overcast
5:53 AM 50.0 °F 48.2 °F 94% 30.00 in 2.5 mi Calm Calm - N/A   Overcast
6:13 AM 50.0 °F 46.4 °F 87% 30.00 in 0.8 mi NE 3.5 mph - N/A   Overcast
6:33 AM 50.0 °F 48.2 °F 94% 30.00 in 1.5 mi ENE 4.6 mph - N/A   Overcast
6:53 AM 50.0 °F 46.4 °F 87% 30.00 in 2.0 mi NE 5.8 mph - N/A   Overcast
7:13 AM 50.0 °F 46.4 °F 87% 30.00 in 2.0 mi Calm Calm - N/A   Overcast
7:33 AM 50.0 °F 46.4 °F 87% 30.00 in 1.2 mi ENE 3.5 mph - N/A   Overcast
7:53 AM 50.0 °F 48.2 °F 94% 30.02 in 1.5 mi Calm Calm - N/A   Overcast
8:13 AM 51.8 °F 48.2 °F 88% 30.02 in 2.0 mi Calm Calm - N/A   Overcast
8:33 AM 51.8 °F 48.2 °F 88% 30.02 in 2.5 mi Calm Calm - N/A   Overcast
8:53 AM 51.8 °F 48.2 °F 88% 30.01 in 2.5 mi Calm Calm - N/A   Overcast
9:13 AM 51.8 °F 48.2 °F 88% 30.01 in 4.0 mi Calm Calm - N/A   Overcast
9:33 AM 53.6 °F 48.2 °F 82% 30.02 in 4.0 mi ENE 4.6 mph - N/A   Overcast
9:53 AM 53.6 °F 48.2 °F 82% 30.02 in 5.0 mi ENE 3.5 mph - N/A   Overcast
10:13 AM 53.6 °F 48.2 °F 82% 30.02 in 5.0 mi NE 5.8 mph - N/A   Haze
10:33 AM 53.6 °F 48.2 °F 82% 30.02 in 7.0 mi East 4.6 mph - N/A   Mostly Cloudy
10:53 AM 55.4 °F 48.2 °F 77% 30.01 in 7.0 mi ENE 5.8 mph - N/A   Mostly Cloudy
11:13 AM 55.4 °F 48.2 °F 77% 30.01 in 7.0 mi NE 6.9 mph - N/A   Scattered Clouds
11:33 AM 55.4 °F 50.0 °F 82% 30.01 in 7.0 mi NE 5.8 mph - N/A   Mostly Cloudy
11:53 AM 55.4 °F 48.2 °F 77% 30.01 in 7.0 mi NE 6.9 mph - N/A   Scattered Clouds
12:13 PM 55.4 °F 48.2 °F 77% 30.01 in 7.0 mi ENE 5.8 mph - N/A   Clear
12:33 PM 55.4 °F 48.2 °F 77% 30.00 in 7.0 mi ENE 6.9 mph - N/A   Clear
12:53 PM 57.2 °F 48.2 °F 72% 30.00 in 7.0 mi ENE 9.2 mph - N/A   Clear
1:13 PM 57.2 °F 48.2 °F 72% 30.00 in 7.0 mi ENE 9.2 mph - N/A   Clear
1:33 PM 57.2 °F 48.2 °F 72% 30.00 in 7.0 mi ENE 10.4 mph - N/A   Clear
1:53 PM 57.2 °F 50.0 °F 77% 29.99 in 7.0 mi NE 8.1 mph - N/A   Clear
2:13 PM 59.0 °F 50.0 °F 72% 29.99 in 7.0 mi ENE 10.4 mph 16.1 mph N/A   Clear
2:33 PM 59.0 °F 50.0 °F 72% 29.98 in 7.0 mi NE 9.2 mph - N/A   Clear
2:53 PM 55.4 °F 48.2 °F 77% 29.98 in 7.0 mi ENE 12.7 mph 17.3 mph N/A   Scattered Clouds
3:14 PM 55.4 °F 48.2 °F 77% 29.98 in 7.0 mi ENE 13.8 mph 17.3 mph N/A   Clear
3:33 PM 55.4 °F 48.2 °F 77% 29.98 in 7.0 mi NE 10.4 mph 16.1 mph N/A   Scattered Clouds
3:53 PM 55.4 °F 48.2 °F 77% 29.98 in 7.0 mi NE 11.5 mph 17.3 mph N/A   Scattered Clouds
4:13 PM 55.4 °F 48.2 °F 77% 29.97 in 7.0 mi ENE 10.4 mph - N/A   Scattered Clouds
4:33 PM 57.2 °F 48.2 °F 72% 29.96 in 10.0 mi NE 10.4 mph - N/A   Clear
4:53 PM 55.4 °F 48.2 °F 77% 29.96 in 10.0 mi NNE 10.4 mph - N/A   Clear
5:13 PM 53.6 °F 48.2 °F 82% 29.96 in 7.0 mi NNE 11.5 mph 16.1 mph N/A   Clear
5:33 PM 53.6 °F 46.4 °F 77% 29.96 in 7.0 mi NE 9.2 mph 16.1 mph N/A   Clear
5:53 PM 51.8 °F 46.4 °F 82% 29.96 in 7.0 mi NE 8.1 mph 16.1 mph N/A   Clear
6:13 PM 51.8 °F 46.4 °F 82% 29.96 in 5.0 mi NE 9.2 mph - N/A   Clear
6:33 PM 51.8 °F 46.4 °F 82% 29.96 in 5.0 mi NE 8.1 mph - N/A   Clear
6:53 PM 51.8 °F 46.4 °F 82% 29.96 in 7.0 mi NE 6.9 mph - N/A   Clear
7:13 PM 50.0 °F 46.4 °F 87% 29.96 in 10.0 mi NE 8.1 mph - N/A   Clear
7:33 PM 51.8 °F 46.4 °F 82% 29.96 in 10.0 mi NE 6.9 mph - N/A   Clear
7:53 PM 51.8 °F 46.4 °F 82% 29.97 in 10.0 mi NE 3.5 mph - N/A   Clear
8:13 PM 51.8 °F 46.4 °F 82% 29.97 in 10.0 mi NNE 4.6 mph - N/A   Clear
8:33 PM 51.8 °F 46.4 °F 82% 29.97 in 10.0 mi Calm Calm - N/A   Clear
8:53 PM 51.8 °F 46.4 °F 82% 29.96 in 10.0 mi NNE 4.6 mph - N/A   Clear
9:13 PM 51.8 °F 46.4 °F 82% 29.97 in 10.0 mi NNE 4.6 mph - N/A   Clear
9:33 PM 51.8 °F 48.2 °F 88% 29.97 in 10.0 mi NNE 5.8 mph - N/A   Clear
9:53 PM 51.8 °F 46.4 °F 82% 29.96 in 10.0 mi NE 5.8 mph - N/A   Clear
10:13 PM 51.8 °F 46.4 °F 82% 29.97 in 10.0 mi North 5.8 mph - N/A   Clear
10:33 PM 51.8 °F 46.4 °F 82% 29.97 in 10.0 mi North 3.5 mph - N/A   Clear
10:53 PM 51.8 °F 46.4 °F 82% 29.97 in 10.0 mi North 3.5 mph - N/A   Clear
11:13 PM 51.8 °F 48.2 °F 88% 29.97 in 10.0 mi North 4.6 mph - N/A   Clear
11:33 PM 51.8 °F 48.2 °F 88% 29.98 in 10.0 mi NNW 3.5 mph - N/A   Clear
11:53 PM 48.2 °F 44.6 °F 87% 29.98 in 10.0 mi Calm Calm - N/A   Clear